Destin, FL

2:38 PM CST on February 27, 2017 (GMT -0600)
Destin-Fort Walton Beach

Weather History for KDTS - October, 2013

Change the Weather History Date:

Saturday, October 5, 2013

  Actual Average Record
Temperature  
Mean Temperature 80 °F -  
Max Temperature 87 °F 79 °F 91 °F (2016)
Min Temperature 75 °F 64 °F 54 °F (2010)
Cooling Degree Days 16    
Growing Degree Days 30 (Base 50)    
Moisture  
Dew Point 74 °F    
Average Humidity 80    
Maximum Humidity 94    
Minimum Humidity 67    
Precipitation  
Precipitation 0.00 in - - ()
Sea Level Pressure  
Sea Level Pressure 30.01 in    
Wind  
Wind Speed 7 mph (ESE)    
Max Wind Speed 13 mph    
Max Gust Speed 18 mph    
Visibility 10 miles    
Events      
Averages and records for this station are not official NWS values.
T = Trace of Precipitation, MM = Missing Value Source: NWS Daily Summary

Daily Weather History Graph

Daily Weather History Graph

Search for Another Location

Airport or City:

Trip Planner

Search our weather history database for the weather conditions in past years. The results will help you decide how hot, cold, wet, or windy it might be!

Date:

Astronomy

Oct. 05, 2013 Rise Set
Actual Time 6:41 AM CDT 6:26 PM CDT
Civil Twilight 6:17 AM CDT 6:50 PM CDT
Nautical Twilight 5:50 AM CDT 7:17 PM CDT
Astronomical Twilight 5:22 AM CDT 7:45 PM CDT
Moon 7:15 AM CDT (10/5) 6:51 PM CDT (10/5)
Length of Visible Light 12h 32m
Length of Day
11h 44m
New Moon, 1% of the Moon is Illuminated
Oct 5
New Moon
Oct 11
First Quarter
Oct 18
Full
Oct 26
Last Quarter
Nov 3
New

Hourly Weather History & Observations

Time (CDT) Temp. Heat Index Dew Point Humidity Pressure Visibility Wind Dir Wind Speed Gust Speed Precip Events Conditions
12:53 AM 81.0 °F 86.7 °F 75.0 °F 82% 30.04 in 10.0 mi SE 6.9 mph - N/A   Partly Cloudy
1:51 AM 78.8 °F - 75.2 °F 89% 30.02 in 10.0 mi ENE 4.6 mph - N/A   Mostly Cloudy
1:53 AM 79.0 °F - 75.9 °F 90% 30.02 in 10.0 mi ENE 4.6 mph - N/A   Mostly Cloudy
2:02 AM 78.8 °F - 75.2 °F 89% 30.02 in 10.0 mi ENE 5.8 mph - N/A   Scattered Clouds
2:53 AM 77.0 °F - 75.0 °F 94% 30.01 in 9.0 mi ENE 3.5 mph - N/A   Clear
3:53 AM 77.0 °F - 73.9 °F 90% 30.01 in 7.0 mi ENE 3.5 mph - N/A   Clear
4:53 AM 75.9 °F - 73.9 °F 94% 30.01 in 8.0 mi East 3.5 mph - N/A   Clear
5:53 AM 75.9 °F - 73.9 °F 94% 30.03 in 10.0 mi ENE 3.5 mph - N/A   Clear
6:53 AM 75.9 °F - 73.0 °F 91% 30.04 in 10.0 mi NE 4.6 mph - N/A   Clear
7:53 AM 78.1 °F - 73.9 °F 87% 30.05 in 10.0 mi ENE 4.6 mph - N/A   Clear
8:53 AM 81.0 °F 85.8 °F 73.0 °F 77% 30.06 in 10.0 mi ENE 4.6 mph - N/A   Clear
9:53 AM 82.9 °F 89.4 °F 73.9 °F 74% 30.06 in 10.0 mi ENE 6.9 mph - N/A   Clear
10:53 AM 84.0 °F 91.2 °F 73.9 °F 72% 30.06 in 10.0 mi SE 11.5 mph - N/A   Clear
11:53 AM 84.9 °F 94.1 °F 75.9 °F 74% 30.05 in 10.0 mi SE 10.4 mph - N/A   Clear
12:33 PM 84.2 °F 92.3 °F 75.2 °F 74% 30.04 in 10.0 mi SE 10.4 mph - N/A   Mostly Cloudy
12:42 PM 84.2 °F 92.3 °F 75.2 °F 74% 30.04 in 10.0 mi SE 10.4 mph - N/A   Mostly Cloudy
12:53 PM 84.9 °F 94.1 °F 75.9 °F 74% 30.03 in 10.0 mi SE 12.7 mph - N/A   Mostly Cloudy
12:56 PM 84.2 °F 92.3 °F 75.2 °F 74% 30.03 in 10.0 mi SE 10.4 mph - N/A   Scattered Clouds
1:53 PM 86.0 °F 96.0 °F 75.9 °F 72% 29.99 in 10.0 mi SSE 10.4 mph - N/A   Clear
2:53 PM 84.9 °F 93.3 °F 75.0 °F 72% 29.99 in 10.0 mi SSE 10.4 mph - N/A   Partly Cloudy
3:53 PM 84.9 °F 91.4 °F 73.0 °F 67% 29.98 in 10.0 mi SSE 10.4 mph - N/A   Clear
4:53 PM 84.0 °F 91.2 °F 73.9 °F 72% 29.97 in 10.0 mi SSE 10.4 mph 18.4 mph N/A   Partly Cloudy
5:53 PM 82.0 °F 88.6 °F 75.0 °F 79% 29.96 in 10.0 mi SE 12.7 mph - N/A   Partly Cloudy
6:53 PM 82.0 °F 88.6 °F 75.0 °F 79% 29.97 in 10.0 mi SE 12.7 mph - N/A   Mostly Cloudy
7:53 PM 82.0 °F 87.4 °F 73.0 °F 74% 29.98 in 10.0 mi SE 11.5 mph - N/A   Overcast
8:53 PM 82.0 °F 87.9 °F 73.9 °F 76% 29.99 in 10.0 mi SSE 9.2 mph - N/A   Mostly Cloudy
9:53 PM 81.0 °F 85.8 °F 73.0 °F 77% 29.99 in 10.0 mi SE 10.4 mph - N/A   Clear
10:53 PM 80.1 °F 83.8 °F 72.0 °F 76% 29.98 in 10.0 mi SE 8.1 mph - N/A   Clear
11:53 PM 80.1 °F 83.8 °F 72.0 °F 76% 29.96 in 10.0 mi SE 9.2 mph - N/A   Clear